FW2265 Weather Reports


time (UTC)temp
C
wind
direction
speed
KPH
gust
KPH
rain 1hr
cm
rain 24hr
cm
rain mn
cm
humidity
%
barometer
mb
20260510071028 23 225 0.0 0.0 0.00 0.05 0.00 93 1011.5
20260510065128 23 202 0.0 1.6 0.00 0.05 0.00 91 1011.6
20260510064128 23 182 0.0 1.6 0.00 0.05 0.00 92 1011.6
20260510063129 23 216 0.0 1.6 0.00 0.05 0.00 92 1011.7
20260510062127 23 225 0.0 1.6 0.00 0.05 0.00 93 1011.8
20260510054230 23 225 0.0 1.6 0.00 0.05 0.00 93 1012.0
20260510051229 23 169 0.0 6.4 0.00 0.05 0.00 93 1012.3
20260510050228 24 212 0.0 0.0 0.00 0.05 0.00 93 1012.4
20260510045237 24 103 0.0 6.4 0.00 0.05 0.05 94 1012.5
20260510044334 24 58 0.0 3.2 0.00 0.05 0.05 93 1012.6
20260510043336 24 72 0.0 3.2 0.03 0.05 0.05 94 1012.7
20260510042434 24 63 0.0 1.6 0.03 0.05 0.05 94 1012.8
20260510035435 24 135 0.0 0.0 0.05 0.05 0.05 93 1013.0
20260510034437 24 45 0.0 1.6 0.05 0.05 0.05 92 1012.7
20260510033535 24 174 0.0 0.0 0.05 0.05 0.05 92 1012.5
20260510032536 25 166 0.0 3.2 0.03 0.03 0.03 91 1012.3
20260510031535 25 67 0.0 4.8 0.03 0.03 0.00 90 1012.9
20260510030536 25 187 0.0 1.6 0.00 0.00 0.00 90 1012.9
20260510025536 25 83 0.0 3.2 0.00 0.00 0.00 89 1012.7
20260510024635 25 15 1.6 3.2 0.00 0.00 0.00 89 1012.4
20260510021734 25 132 0.0 3.2 0.00 0.00 0.00 86 1011.9
20260510020736 26 115 0.0 6.4 0.00 0.00 0.00 85 1011.6
20260510015736 26 66 0.0 3.2 0.00 0.00 0.00 80 1011.1
20260510013735 27 225 0.0 1.6 0.00 0.00 0.00 73 1010.5
20260510012736 27 131 0.0 0.0 0.00 0.00 0.00 70 1010.4
20260510010835 27 222 1.6 3.2 0.00 0.00 0.00 67 1009.7
20260510005836 28 220 0.0 3.2 0.00 0.00 0.00 63 1009.4
20260510004033 28 209 0.0 0.0 0.00 0.00 0.00 68 1009.3
20260510003037 28 205 0.0 1.6 0.00 0.00 0.00 66 1009.3
20260510002036 28 199 0.0 1.6 0.00 0.00 0.00 63 1009.2
20260510001036 28 125 0.0 0.0 0.00 0.00 0.00 62 1009.4
20260510000037 28 90 0.0 0.0 0.00 0.00 0.00 64 1009.0
20260509234035 29 90 0.0 0.0 0.00 0.00 0.00 68 1009.0
20260509231134 30 202 0.0 0.0 0.00 0.00 0.00 68 1008.9
20260509230136 30 87 0.0 1.6 0.00 0.00 0.00 68 1008.9
20260509225136 30 140 0.0 3.2 0.00 0.00 0.00 70 1008.7
20260509224135 30 82 0.0 4.8 0.00 0.00 0.00 70 1008.6
20260509223136 30 135 0.0 0.0 0.00 0.00 0.00 68 1008.8
20260509222234 30 123 0.0 6.4 0.00 0.00 0.00 67 1008.8
20260509221234 30 73 0.0 1.6 0.00 0.00 0.00 66 1008.5
20260509220236 31 174 0.0 0.0 0.00 0.00 0.00 62 1008.6
20260509215335 32 220 0.0 4.8 0.00 0.00 0.00 60 1008.4
20260509214336 32 255 0.0 1.6 0.00 0.00 0.00 57 1008.5
20260509213336 33 54 0.0 4.8 0.00 0.00 0.00 56 1008.5
20260509212336 33 179 0.0 0.0 0.00 0.00 0.00 56 1008.4
20260509211335 34 225 0.0 3.2 0.00 0.00 0.00 53 1008.4
20260509210335 34 205 1.6 4.8 0.00 0.00 0.00 51 1008.4
20260509205337 34 32 0.0 1.6 0.00 0.00 0.00 46 1008.6
20260509203337 33 152 0.0 0.0 0.00 0.00 0.00 54 1008.8
20260509202336 33 122 0.0 0.0 0.00 0.00 0.00 56 1008.8
20260509201334 32 49 0.0 0.0 0.00 0.00 0.00 51 1009.0
20260509200434 32 90 0.0 0.0 0.00 0.00 0.00 51 1009.2
20260509195434 33 225 0.0 0.0 0.00 0.00 0.00 51 1009.3
20260509193437 32 67 0.0 0.0 0.00 0.00 0.00 53 1009.3
20260509192435 31 121 0.0 0.0 0.00 0.00 0.00 54 1009.3
20260509191535 32 121 0.0 0.0 0.00 0.00 0.00 55 1009.4
20260509190534 32 209 0.0 3.2 0.00 0.00 0.00 54 1009.5
20260509185536 32 198 0.0 0.0 0.00 0.00 0.00 57 1009.7
20260509184634 32 33 1.6 3.2 0.00 0.00 0.00 59 1009.7
20260509183636 31 247 0.0 0.0 0.00 0.00 0.00 60 1009.7
20260509182637 31 187 0.0 0.0 0.00 0.00 0.00 63 1010.2
20260509181634 31 202 1.6 4.8 0.00 0.00 0.00 66 1010.3
20260509180637 30 225 0.0 1.6 0.00 0.00 0.00 70 1010.4
20260509173636 28 225 0.0 0.0 0.00 0.00 0.00 76 1011.2
20260509171733 27 225 0.0 1.6 0.00 0.00 0.00 78 1011.2
20260509170736 28 202 0.0 1.6 0.00 0.00 0.00 78 1011.2
20260509165734 28 202 0.0 3.2 0.00 0.00 0.00 78 1011.3
20260509164738 28 206 0.0 3.2 0.00 0.00 0.00 78 1011.4
20260509163834 28 225 0.0 1.6 0.00 0.00 0.00 77 1011.4
20260509162834 28 202 1.6 4.8 0.00 0.00 0.00 78 1011.2
20260509161833 27 180 1.6 3.2 0.00 0.00 0.00 79 1011.1
20260509160836 27 112 0.0 0.0 0.00 0.00 0.00 81 1011.2
20260509155934 27 43 0.0 1.6 0.00 0.00 0.00 82 1011.2
20260509154936 27 202 0.0 0.0 0.00 0.00 0.00 83 1011.4
20260509154034 26 202 0.0 0.0 0.00 0.00 0.00 85 1011.1
20260509153037 26 105 0.0 1.6 0.00 0.00 0.00 87 1010.6
20260509152134 25 225 0.0 0.0 0.00 0.00 0.00 88 1010.9
20260509151034 25 225 0.0 0.0 0.00 0.00 0.00 88 1010.9
20260509150036 25 173 0.0 0.0 0.00 0.00 0.00 87 1010.6
20260509145034 25 180 0.0 0.0 0.00 0.00 0.00 88 1011.1
20260509144133 25 180 0.0 0.0 0.00 0.00 0.00 88 1011.2
20260509143134 25 201 0.0 0.0 0.00 0.00 0.00 89 1011.2
20260509141135 25 225 0.0 0.0 0.00 0.03 0.00 92 1011.2
20260509140136 25 225 0.0 0.0 0.00 0.03 0.00 94 1011.0
20260509135133 24 225 0.0 1.6 0.00 0.03 0.00 96 1011.1
20260509135034 24 225 0.0 0.0 0.00 0.03 0.00 96 1011.1
20260509134036 24 225 0.0 3.2 0.00 0.03 0.00 96 1010.9
20260509133035 24 225 0.0 0.0 0.00 0.03 0.00 97 1011.1
20260509132036 23 225 0.0 0.0 0.00 0.03 0.00 97 1011.5
20260509130136 23 225 0.0 0.0 0.00 0.03 0.00 97 1011.0
20260509125134 23 225 1.6 3.2 0.00 0.03 0.00 98 1011.0
20260509124134 23 225 0.0 1.6 0.00 0.03 0.00 98 1011.1
20260509122134 23 225 0.0 0.0 0.00 0.03 0.00 98 1011.0
20260509121135 23 225 0.0 0.0 0.00 0.03 0.00 97 1010.9
20260509120135 23 225 0.0 0.0 0.00 0.03 0.00 97 1011.0
20260509114133 23 225 0.0 0.0 0.00 0.03 0.00 97 1011.2
20260509113136 23 225 0.0 0.0 0.00 0.03 0.00 97 1010.9
20260509113036 23 225 0.0 0.0 0.00 0.03 0.00 97 1011.0
20260509111034 23 225 0.0 0.0 0.00 0.03 0.00 97 1010.9
20260509110133 23 225 0.0 0.0 0.00 0.03 0.00 98 1010.6
20260509105134 23 225 0.0 0.0 0.00 0.03 0.00 97 1010.4
20260509104136 23 225 0.0 0.0 0.00 0.03 0.00 97 1010.4
20260509103136 23 225 0.0 0.0 0.00 0.03 0.00 97 1010.4
20260509102136 23 225 0.0 0.0 0.00 0.03 0.00 97 1010.5
20260509101136 23 225 0.0 0.0 0.00 0.03 0.00 97 1010.7
20260509095233 23 225 0.0 0.0 0.00 0.03 0.00 97 1010.4
20260509093236 22 225 0.0 0.0 0.00 0.03 0.00 97 1010.2
20260509092334 22 225 0.0 0.0 0.00 0.03 0.00 96 1009.9
20260509090336 22 225 0.0 0.0 0.00 0.03 0.00 97 1010.1
20260509085335 22 225 0.0 0.0 0.00 0.03 0.00 97 1009.9
20260509084334 22 225 0.0 0.0 0.00 0.03 0.00 97 1010.0
20260509084236 22 225 0.0 0.0 0.00 0.03 0.00 97 1010.0
20260509083335 22 225 0.0 0.0 0.00 0.03 0.00 96 1010.2
20260509082434 22 225 0.0 0.0 0.00 0.03 0.00 97 1010.1
20260509081434 22 225 0.0 0.0 0.00 0.03 0.00 97 1010.2
20260509080435 22 225 0.0 0.0 0.00 0.03 0.00 96 1010.2
20260509074435 22 225 0.0 0.0 0.00 0.03 0.00 96 1010.6
20260509073534 22 225 0.0 0.0 0.00 0.03 0.00 96 1010.7
20260509072535 22 225 0.0 0.0 0.00 0.03 0.00 96 1010.8